Other Public Products
Issued by NWS Charleston, SC

Current Version | Previous Version | Graphics & Text | Print | Product List | Glossary On
Versions: 1 2 3 4 5 6 7 8 9 10 11 12 13 14 15 16 17 18 19 20 21 22 23 24 25 26 27 28 29 30 31 32 33 34 35 36 37 38 39 40 41 42 43 44 45 46 47 48 49 50
053
FPUS82 KCHS 160627
OPUCHS

TEST...KCHS/KSAV Gateway Observations...TEST
National Weather Service Charleston SC
100 AM EST SAT DEC 16 2017

NOTE: "fair" indicates few or no clouds below 12,000 feet with no
significant weather and/or obstructions to visibility.

SCZ050-WAZ558-NCZ071-TXZ119-213-PAZ071-DCZ001-FLZ074-172-MI076-
NYZ176-178-MAZ016-IL014-TNZ027-NJZ106-GAZ044-MD014-160700-

...Gateway Observations for Charleston International...

CITY           SKY/WX    TMP DP  RH WIND       PRES   REMARKS
Chas Airport   PTCLDY    46  31  55 NW7       30.16R
6HR MIN TEMP:  45; 6HR MAX TEMP:  55;

Seattle        FOG       42  41  96 E8        30.25R VSB 1/2
6HR MIN TEMP:  40; 6HR MAX TEMP:  43; 6HR PCP:  0.06;

Charlotte      CLEAR     30  21  69 NW5       30.14R WCI  25
6HR MIN TEMP:  30; 6HR MAX TEMP:  40;

Dallas DFW     CLOUDY    40  26  57 S10       30.17F WCI  33
6HR MIN TEMP:  39; 6HR MAX TEMP:  52;

Dallas Love    CLOUDY    44  26  49 S6        30.19F
6HR MIN TEMP:  40; 6HR MAX TEMP:  52;

Philladelphia  CLEAR     21  17  84 W9        30.00R WCI  11
6HR MIN TEMP:  21; 6HR MAX TEMP:  26;

Wash National  MOCLDY    27  23  85 S8        30.05R WCI  19
6HR MIN TEMP:  25; 6HR MAX TEMP:  29;

Baltimore      PTCLDY    20  19  96 SW3       30.03R
6HR MIN TEMP:  18; 6HR MAX TEMP:  23;

Miami          MOCLDY    64  58  80 NW5       30.18R
6HR MIN TEMP:  63; 6HR MAX TEMP:  72;

Detroit        FLURRIES  29  22  75 SW8       29.90F WCI  21
6HR MIN TEMP:  28; 6HR MAX TEMP:  29; 6HR PCP: TRACE;

Newark         PTCLDY    21  18  88 W8        29.92S WCI  11
6HR MIN TEMP:  20; 6HR MAX TEMP:  24; 6HR PCP: TRACE;

Laguardia      PTCLDY    26  18  71 W14G20    29.91R WCI  14
6HR MIN TEMP:  25; 6HR MAX TEMP:  28; 6HR PCP:  0.01;

J F K          PTCLDY    24  20  84 W14       29.93S WCI  12
6HR MIN TEMP:  24; 6HR MAX TEMP:  26; 6HR PCP: TRACE;

Boston Logan   CLOUDY    24  17  74 W12       29.79F WCI  13
6HR MIN TEMP:  24; 6HR MAX TEMP:  27; 6HR PCP: TRACE;

Ft. Lauderdale CLEAR     64  57  78 NW5       30.17S
6HR MIN TEMP:  63; 6HR MAX TEMP:  71;

Chicago O`Hare CLOUDY    37  21  52 SW16      29.87S WCI  28
6HR MIN TEMP:  33; 6HR MAX TEMP:  37;

Chicago Midway CLOUDY    38  21  50 SW13      29.89F WCI  30
6HR MIN TEMP:  34; 6HR MAX TEMP:  38; 6HR PCP: TRACE;

Houston Bush   MOCLDY    43  39  86 CALM      30.27F
6HR MIN TEMP:  42; 6HR MAX TEMP:  50;

Houston Hobby  MOCLDY    43  40  89 CALM      30.26F
6HR MIN TEMP:  43; 6HR MAX TEMP:  52;

Nashville      CLEAR     29  22  75 S5        30.22S WCI  24
6HR MIN TEMP:  28; 6HR MAX TEMP:  38;

Atlanta        CLOUDY    29  24  82 W7        30.21S WCI  22
6HR MIN TEMP:  29; 6HR MAX TEMP:  36;


$$

GAZ044-118-TXZ119-213-NCZ071-DCZ001-MDZ014-506-PAZ021-071-NJZ106-
NYZ176-178-MAZ106-OHZ011-021-055-MIZ076-KYZ091-ILZ014-INZ047-
MNZ060-ONZ431-160700-

...Gateway Observations for Savannah International...

CITY           SKY/WX    TMP DP  RH WIND       PRES   REMARKS
Savannah Arpt  CLOUDY    48  28  46 NW10      30.19R
6HR MIN TEMP:  47; 6HR MAX TEMP:  55;

Atlanta        CLOUDY    29  24  82 W7        30.21S WCI  22
6HR MIN TEMP:  29; 6HR MAX TEMP:  36;

Charlotte      CLEAR     30  21  69 NW5       30.14R WCI  25
6HR MIN TEMP:  30; 6HR MAX TEMP:  40;

Dallas DFW     CLOUDY    40  26  57 S10       30.17F WCI  33
6HR MIN TEMP:  39; 6HR MAX TEMP:  52;

Houston Bush   MOCLDY    43  39  86 CALM      30.27F
6HR MIN TEMP:  42; 6HR MAX TEMP:  50;

Wash National  MOCLDY    27  23  85 S8        30.05R WCI  19
6HR MIN TEMP:  25; 6HR MAX TEMP:  29;

Wash Dulles    CLOUDY    26  23  88 SW7       30.03R WCI  18
6HR MIN TEMP:  20; 6HR MAX TEMP:  26;

Baltimore      PTCLDY    20  19  96 SW3       30.03R
6HR MIN TEMP:  18; 6HR MAX TEMP:  23;

Philadelphia   CLEAR     21  17  84 W9        30.00R WCI  11
6HR MIN TEMP:  21; 6HR MAX TEMP:  26;

Newark         PTCLDY    21  18  88 W8        29.92S WCI  11
6HR MIN TEMP:  20; 6HR MAX TEMP:  24; 6HR PCP: TRACE;

Laguardia      PTCLDY    26  18  71 W14G20    29.91R WCI  14
6HR MIN TEMP:  25; 6HR MAX TEMP:  28; 6HR PCP:  0.01;

J F K          PTCLDY    24  20  84 W14       29.93S WCI  12
6HR MIN TEMP:  24; 6HR MAX TEMP:  26; 6HR PCP: TRACE;

Boston         CLOUDY    24  17  74 W12       29.79F WCI  13
6HR MIN TEMP:  24; 6HR MAX TEMP:  27; 6HR PCP: TRACE;

Pittsburg      CLOUDY    29  18  63 SW14      29.98S WCI  18
6HR MIN TEMP:  27; 6HR MAX TEMP:  29; 6HR PCP: TRACE;

Akron          MOCLDY    28  17  63 SW14G22   29.96F WCI  17
6HR MIN TEMP:  26; 6HR MAX TEMP:  28; 6HR PCP: TRACE;

Cleveland      CLOUDY    30  19  63 SW15      29.96F WCI  19
6HR MIN TEMP:  25; 6HR MAX TEMP:  30;

Cincinnati     CLOUDY    32  24  72 S9        30.08F WCI  24
6HR MIN TEMP:  29; 6HR MAX TEMP:  32;

Columbus       CLOUDY    29  22  75 SW10      30.05F WCI  19
Detroit        FLURRIES  29  22  75 SW8       29.90F WCI  21
6HR MIN TEMP:  28; 6HR MAX TEMP:  29; 6HR PCP: TRACE;

Chicago O`Hare CLOUDY    37  21  52 SW16      29.87S WCI  28
6HR MIN TEMP:  33; 6HR MAX TEMP:  37;

Minneapolis    CLOUDY    30  29  96 E10       29.66F WCI  21
6HR MIN TEMP:  26; 6HR MAX TEMP:  30; 6HR PCP:  0.05;

Indianapolis   MOCLDY    31  23  72 SW10      30.04F WCI  22
6HR MIN TEMP:  30; 6HR MAX TEMP:  34;

Toronto Canada PTCLDY    21  12  68 SW13      29.79S WCI   9

$$




USA.gov is the U.S. government's official web portal to all federal, state and local government web resources and services.